Printer-friendly version
Follow the MPC on Twitter Follow the MPC on Facebook The MPC blog
Minor Planet Center

MPEC 2004-V24 : 2004 VJ1

The following Minor Planet Electronic Circular may be linked-to from your own Web pages, but must not otherwise be redistributed electronically.

A form allowing access to any MPEC is at the bottom of this page.


Read MPEC 2004-V23 Read MPEC 2004-V25


M.P.E.C. 2004-V24                                Issued 2004 Nov. 5, 13:57 UT

     The Minor Planet Electronic Circulars contain information on unusual
         minor planets and routine data on comets.  They are published
   on behalf of Commission 20 of the International Astronomical Union by the
          Minor Planet Center, Smithsonian Astrophysical Observatory,
                          Cambridge, MA 02138, U.S.A.

                  Supported in part by the Brinson Foundation
             Prepared using the Tamkin Foundation Computer Network

                              MPC@CFA.HARVARD.EDU
          URL http://cfa-www.harvard.edu/iau/mpc.html  ISSN 1523-6714

                                   2004 VJ1

Observations:
     K04V01J* C2004 11 04.35398 02 36 23.42 +18 15 18.4          18.9 R EV024703
     K04V01J  C2004 11 04.36366 02 36 20.29 +18 14 57.8          19.0 R EV024703
     K04V01J  C2004 11 04.37340 02 36 17.03 +18 14 37.3          18.9 R EV024703
     K04V01J  C2004 11 04.38321 02 36 13.76 +18 14 16.4          18.9 R EV024703
     K04V01J  C2004 11 04.45630 02 35 50.47 +18 11 38.7          19.3 R EV024703
     K04V01J  C2004 11 04.45715 02 35 50.30 +18 11 36.8          18.6 R EV024703
     K04V01J  C2004 11 04.45802 02 35 49.95 +18 11 35.3          19.0 R EV024703
     K04V01J  C2004 11 04.45889 02 35 49.65 +18 11 32.7          18.4 R EV024703
     K04V01J  C2004 11 04.97059 02 33 22.74 +17 53 38.8          19.7 R EV024J95
     K04V01J  C2004 11 04.99287 02 33 15.61 +17 52 52.6          19.3 R EV024J95
     K04V01J  C2004 11 05.00020 02 33 13.11 +17 52 37.3          19.2 R EV024J95
     K04V01J  C2004 11 05.21601 02 32 10.30 +17 45 21.4          19.1 R EV024649
     K04V01J  C2004 11 05.21962 02 32 09.11 +17 45 15.0          19.2 R EV024649
     K04V01J  C2004 11 05.22322 02 32 08.12 +17 45 09.0          19.1 R EV024649
     K04V01J  C2004 11 05.22848 02 32 06.21 +17 44 57.7          19.1 R EV024649
     K04V01J  C2004 11 05.28121 02 31 49.88 +17 43 15.6          20.0 R EV024448
     K04V01J  C2004 11 05.28629 02 31 48.18 +17 43 04.8          19.9 R EV024448
     K04V01J  C2004 11 05.29208 02 31 46.24 +17 42 52.8          20.0 R EV024448

Observer details:
448 Desert Moon Observatory.  Observer B. L. Stevens.  0.3-m
    Schmidt-Cassegrain + CCD.
649 Powell Observatory, Louisburg.  Observers R. Fredrick, R. Trentman.
    0.30-m Schmidt-Cassegrain + CCD.
703 Catalina Sky Survey.  Observer E. J. Christensen.  Measurers E. C. Beshore,
    C. M. Casey, E. J. Christensen, G. J. Garradd, R. E. Hill, S. M. Larson,
    R. H. McNaught.  0.68-m Schmidt + CCD.
J95 Great Shefford.  Observer P. Birtwhistle.  0.30-m f/6.3 Schmidt-Cassegrain
    + CCD.

Orbital elements:
2004 VJ1
Epoch 2005 Jan. 30.0 TT = JDT 2453400.5                 MPC
M 293.61977              (2000.0)            P               Q
n   1.07506963     Peri.  333.52617     -0.88908283     +0.45739252
a   0.9437240      Node   233.70439     -0.41591571     -0.82362829
e   0.1632427      Incl.    1.27933     -0.19116968     -0.33530364
P   0.92           H   24.1           G   0.15           U   9
Residuals in seconds of arc
041104 703  0.1+  0.0     041104 703  0.2-  0.2+    041105 649  0.0   0.7-
041104 703  0.6+  0.2-    041104 703  0.6-  0.5-    041105 649  2.7+  0.8+
041104 703  0.6-  0.1-    041104 J95  0.2-  0.1-    041105 649  0.0   0.4+
041104 703  1.7-  0.2-    041104 J95  0.4+  0.1+    041105 448  0.6-  0.3-
041104 703  0.5-  0.2-    041105 J95  1.7-  0.2+    041105 448  0.9-  0.4-
041104 703  0.9+  0.2-    041105 649  0.1+  1.8-    041105 448  1.3-  0.2-

Ephemeris:
2004 VJ1                 a,e,i = 0.94, 0.16, 1                   q = 0.7897
Date    TT    R. A. (2000) Decl.     Delta      r     Elong.  Phase     V
2004 11 01    02 52.77   +20 04.0    0.101    1.093   171.5     7.7    19.9
2004 11 11    02 03.90   +14 13.1    0.098    1.085   164.8    13.8    20.0
2004 11 21    01 22.69   +08 13.7    0.103    1.073   143.2    33.5    20.7
2004 12 01    00 56.23   +03 45.3    0.115    1.057   125.3    49.6    21.4
2004 12 11    00 42.53   +00 57.3    0.129    1.038   110.9    62.5    22.0

Timothy B. Spahr             (C) Copyright 2004 MPC           M.P.E.C. 2004-V24

Read MPEC 2004-V23 Read MPEC 2004-V25


MPEC number:

Enter an MPEC number in one of the following forms:

  • 1997-B01 (the full form)
  • J97B01 (the packed version of the full form)
  • B01 (the abbreviated form)

Valid HTML 4.01!